Location: ????????
(37.6846°N, 24.0673°E)
Time: 14:54:19
(UTC+00:00)

Cosmos 1900 - Pass Details

Date: 14 July 2020
Orbit: 682 x 740 km, 66.1° (Epoch: 04 August)

Event Time Altitude Azimuth Distance (km) Brightness Sun altitude
Exits shadow 00:50:30 56° 240° (WSW) 825 4.3 -22.1°
Maximum altitude 00:51:24 72° 300° (WNW) 736 4.3 -22.0°
Drops below altitude 10° 00:56:21 10° 25° (NNE) 2,181 8.0 -21.4°
Sets 00:58:44 0° 27° (NNE) 3,113 9.1 -21.1°
